FW7504 Weather Reports


time (UTC)temp
F
wind
direction
speed
knots
gust
knots
rain 1hr
in
rain 24hr
in
rain mn
in
humidity
%
barometer
mb
20260904051051 80 0 0.0 0.0 0.00 0.00 0.00 81 1017.8
20260904050551 80 0 0.0 0.0 0.00 0.00 0.00 81 1017.9
20260904050107 80 0 0.0 0.0 0.00 0.00 0.00 80 1017.8
20260904045552 80 0 0.0 0.0 0.00 0.00 0.00 80 1017.8
20260904045053 80 0 0.0 0.0 0.00 0.00 0.00 80 1017.8
20260904044606 80 0 0.0 0.0 0.00 0.00 0.00 80 1017.8
20260904044052 80 0 0.0 0.0 0.00 0.00 0.00 80 1017.9
20260904043549 81 0 0.0 0.0 0.00 0.00 0.00 80 1017.9
20260904043103 81 0 0.0 0.0 0.00 0.00 0.00 80 1018.0
20260904042551 81 0 0.0 0.9 0.00 0.00 0.00 79 1017.9
20260904042049 81 0 0.0 0.9 0.00 0.00 0.00 79 1017.8
20260904041602 81 0 0.0 0.9 0.00 0.00 0.00 79 1017.8
20260904041053 81 108 0.0 0.0 0.00 0.00 0.00 79 1018.0
20260904040548 81 0 0.0 0.0 0.00 0.00 0.00 78 1018.1
20260904040100 81 0 0.0 0.9 0.00 0.00 0.00 78 1018.1
20260904035552 81 0 0.0 1.7 0.00 0.00 0.00 78 1018.1
20260904035055 82 0 0.0 1.7 0.00 0.00 0.00 78 1018.1
20260904034615 82 0 0.0 1.7 0.00 0.00 0.00 78 1018.1
20260904034051 82 0 0.0 0.0 0.00 0.00 0.00 78 1018.0
20260904033551 82 0 0.0 0.0 0.00 0.00 0.00 78 1018.1
20260904033102 82 0 0.0 0.0 0.00 0.00 0.00 78 1018.1
20260904032550 82 0 0.0 0.0 0.00 0.00 0.00 77 1018.2
20260904032051 82 0 0.0 0.0 0.00 0.00 0.00 77 1018.2
20260904031558 82 0 0.0 0.0 0.00 0.00 0.00 76 1018.2
20260904031051 82 0 0.0 0.9 0.00 0.00 0.00 76 1018.2
20260904030553 83 0 0.0 0.9 0.00 0.00 0.00 76 1018.3
20260904025554 83 0 0.0 0.9 0.00 0.00 0.00 75 1018.3
20260904025051 83 0 0.0 0.0 0.00 0.00 0.00 75 1018.3
20260904024603 83 0 0.0 0.0 0.00 0.00 0.00 74 1018.2
20260904024049 83 0 0.0 0.0 0.00 0.00 0.00 74 1018.2
20260904023548 83 0 0.0 0.0 0.00 0.00 0.00 74 1018.2
20260904023108 83 0 0.0 1.7 0.00 0.00 0.00 73 1018.2
20260904022551 84 0 0.0 1.7 0.00 0.00 0.00 73 1018.2
20260904022048 84 0 0.0 1.7 0.00 0.00 0.00 73 1018.1
20260904021601 84 0 0.0 1.7 0.00 0.00 0.00 73 1018.0
20260904021051 84 0 0.0 1.7 0.00 0.00 0.00 74 1018.0
20260904020552 84 0 0.0 0.0 0.00 0.00 0.00 73 1018.0
20260904020101 84 0 0.0 0.0 0.00 0.00 0.00 73 1018.0
20260904015551 85 0 0.0 0.0 0.00 0.00 0.00 73 1017.9
20260904015048 85 0 0.0 0.0 0.00 0.00 0.00 72 1017.7
20260904014608 85 0 0.0 0.0 0.00 0.00 0.00 72 1017.7
20260904014048 85 0 0.0 0.0 0.00 0.00 0.00 72 1017.8
20260904013551 86 0 0.0 0.0 0.00 0.00 0.00 71 1017.6
20260904013103 86 0 0.0 0.0 0.00 0.00 0.00 71 1017.4
20260904012551 86 0 0.0 0.0 0.00 0.00 0.00 70 1017.5
20260904012053 86 0 0.0 0.0 0.00 0.00 0.00 70 1017.3
20260904011601 86 0 0.0 0.0 0.00 0.00 0.00 70 1017.4
20260904011053 87 0 0.0 0.0 0.00 0.00 0.00 69 1017.3
20260904010554 87 0 0.0 0.0 0.00 0.00 0.00 68 1017.3
20260904010103 87 0 0.0 0.0 0.00 0.00 0.00 67 1017.2
20260904005555 87 0 0.0 0.0 0.00 0.00 0.00 68 1017.2
20260904005055 88 0 0.0 0.0 0.00 0.00 0.00 66 1017.2
20260904004603 88 0 0.0 0.0 0.00 0.00 0.00 67 1017.2
20260904004053 88 0 0.0 0.0 0.00 0.00 0.00 66 1016.9
20260904003554 89 0 0.0 0.0 0.00 0.00 0.00 65 1016.8
20260904003102 89 0 0.0 0.0 0.00 0.00 0.00 64 1016.8
20260904002557 89 0 0.0 0.0 0.00 0.00 0.00 64 1016.7
20260904002058 90 0 0.0 0.0 0.00 0.00 0.00 63 1016.5
20260904001601 90 0 0.0 0.0 0.00 0.00 0.00 63 1016.5
20260904001053 91 0 0.0 0.0 0.00 0.00 0.00 62 1016.5
20260904000553 91 0 0.0 0.0 0.00 0.00 0.00 61 1016.5
20260904000134 91 0 0.0 0.0 0.00 0.00 0.00 60 1016.4
20260903235552 92 0 0.0 0.0 0.00 0.00 0.00 60 1016.2
20260903235056 92 0 0.0 0.0 0.00 0.00 0.00 59 1016.2
20260903234600 92 0 0.0 0.0 0.00 0.00 0.00 59 1016.3
20260903234053 92 0 0.0 0.0 0.00 0.00 0.00 58 1016.2
20260903233554 92 0 0.0 0.0 0.00 0.00 0.00 58 1016.2
20260903233105 93 0 0.0 0.9 0.00 0.00 0.00 58 1016.3
20260903232553 93 0 0.0 0.9 0.00 0.00 0.00 58 1016.1
20260903232055 93 0 0.0 0.9 0.00 0.00 0.00 57 1016.2
20260903231600 93 0 0.0 0.9 0.00 0.00 0.00 57 1016.2
20260903231054 94 0 0.0 0.0 0.00 0.00 0.00 56 1016.1
20260903230554 94 0 0.0 0.0 0.00 0.00 0.00 56 1016.2
20260903230114 94 0 0.0 0.0 0.00 0.00 0.00 55 1016.2
20260903225553 94 0 0.0 0.9 0.00 0.00 0.00 53 1016.1
20260903225053 95 0 0.0 1.7 0.00 0.00 0.00 52 1016.1
20260903224610 95 0 0.0 3.5 0.00 0.00 0.00 52 1016.1
20260903224053 95 0 0.0 3.5 0.00 0.00 0.00 51 1016.1
20260903223554 95 96 0.0 3.5 0.00 0.00 0.00 51 1016.3
20260903223059 96 78 0.9 3.5 0.00 0.00 0.00 50 1016.3
20260903222553 96 92 1.7 3.5 0.00 0.00 0.00 50 1016.1
20260903222057 96 0 0.0 3.5 0.00 0.00 0.00 50 1016.2
20260903221606 97 0 0.0 2.6 0.00 0.00 0.00 50 1016.0
20260903221052 97 89 0.0 2.6 0.00 0.00 0.00 49 1016.1
20260903220553 97 91 0.0 5.2 0.00 0.00 0.00 49 1016.1
20260903220121 97 0 0.9 5.2 0.00 0.00 0.00 48 1016.0
20260903215553 96 62 1.7 6.1 0.00 0.00 0.00 49 1016.0
20260903215053 96 0 0.9 6.1 0.00 0.00 0.00 49 1016.1
20260903214600 96 0 0.9 6.1 0.00 0.00 0.00 49 1016.2
20260903214053 97 0 0.0 3.5 0.00 0.00 0.00 50 1016.2
20260903213556 96 0 0.9 3.5 0.00 0.00 0.00 50 1016.2
20260903213105 96 0 0.0 6.1 0.00 0.00 0.00 50 1016.2
20260903212553 96 89 0.9 6.1 0.00 0.00 0.00 49 1016.2
20260903212054 96 57 1.7 6.1 0.00 0.00 0.00 48 1016.3
20260903211620 96 90 2.6 6.1 0.00 0.00 0.00 47 1016.5
20260903211055 96 67 1.7 5.2 0.00 0.00 0.00 49 1016.6
20260903210553 96 91 1.7 7.8 0.00 0.00 0.00 50 1016.6
20260903210111 96 0 0.9 7.8 0.00 0.00 0.00 49 1016.7
20260903205552 95 14 3.5 7.8 0.00 0.00 0.00 50 1016.7
20260903205052 95 0 0.0 6.1 0.00 0.00 0.00 51 1016.7
20260903204603 95 100 0.9 6.1 0.00 0.00 0.00 52 1016.7
20260903204054 95 40 0.0 6.1 0.00 0.00 0.00 53 1016.7
20260903203553 95 82 0.9 3.5 0.00 0.00 0.00 53 1016.8
20260903203105 95 0 0.0 5.2 0.00 0.00 0.00 53 1016.9
20260903202553 95 0 0.9 6.1 0.00 0.00 0.00 53 1016.8
20260903202053 95 120 1.7 8.7 0.00 0.00 0.00 53 1016.9
20260903201605 95 109 2.6 9.6 0.00 0.00 0.00 52 1016.9
20260903201053 95 106 3.5 9.6 0.00 0.00 0.00 52 1017.0
20260903200553 96 120 1.7 9.6 0.00 0.00 0.00 53 1017.0
20260903200106 96 81 5.2 9.6 0.00 0.00 0.00 51 1017.1
20260903195556 96 94 1.7 7.0 0.00 0.00 0.00 52 1017.1
20260903195053 96 108 1.7 8.7 0.00 0.00 0.00 51 1017.2
20260903194601 96 61 2.6 8.7 0.00 0.00 0.00 51 1017.2
20260903194056 96 59 2.6 10.4 0.00 0.00 0.00 51 1017.2
20260903193552 96 0 2.6 10.4 0.00 0.00 0.00 52 1017.2
20260903193102 96 94 4.3 10.4 0.00 0.00 0.00 52 1017.2
20260903192554 96 95 1.7 6.1 0.00 0.00 0.00 51 1017.4
20260903192055 96 96 0.9 5.2 0.00 0.00 0.00 51 1017.4
20260903191605 95 0 0.0 7.0 0.00 0.00 0.00 51 1017.6
20260903191054 95 326 2.6 7.0 0.00 0.00 0.00 51 1017.6
20260903190553 95 352 0.0 3.5 0.00 0.00 0.00 50 1017.6
20260903190103 95 67 0.0 3.5 0.00 0.00 0.00 51 1017.6
20260903185552 95 347 0.0 3.5 0.00 0.00 0.00 51 1017.8
20260903185053 95 85 0.9 5.2 0.00 0.00 0.00 52 1017.9
20260903184616 94 70 0.9 5.2 0.00 0.00 0.00 53 1017.9
20260903184054 94 82 0.9 5.2 0.00 0.00 0.00 54 1018.1
20260903183553 94 61 1.7 5.2 0.00 0.00 0.00 54 1018.1
20260903183102 94 11 0.0 5.2 0.00 0.00 0.00 54 1018.1
20260903182553 93 13 1.7 6.1 0.00 0.00 0.00 56 1018.1
20260903182052 93 61 0.9 6.1 0.00 0.00 0.00 55 1018.3
20260903181557 93 95 0.0 2.6 0.00 0.00 0.00 54 1018.4
20260903181053 93 0 0.0 2.6 0.00 0.00 0.00 54 1018.4
20260903180553 93 98 0.0 2.6 0.00 0.00 0.00 53 1018.4
20260903180111 93 0 0.9 4.3 0.00 0.00 0.00 54 1018.4
20260903175552 94 22 1.7 4.3 0.00 0.00 0.00 54 1018.5
20260903175053 94 44 1.7 4.3 0.00 0.00 0.00 52 1018.4
20260903174613 94 0 0.0 1.7 0.00 0.00 0.00 54 1018.6
20260903174057 94 103 0.0 4.3 0.00 0.00 0.00 54 1018.6
20260903173554 94 0 0.9 6.1 0.00 0.00 0.00 53 1018.7
20260903173119 94 79 1.7 7.0 0.00 0.00 0.00 54 1018.7
20260903172553 94 72 2.6 7.0 0.00 0.00 0.00 55 1018.8
20260903172053 93 136 1.7 7.0 0.00 0.00 0.00 55 1018.8
20260903171607 93 103 0.0 3.5 0.00 0.00 0.00 58 1018.9
20260903171052 93 0 0.9 4.3 0.00 0.00 0.00 59 1019.1
20260903170553 92 0 1.7 6.1 0.00 0.00 0.00 59 1019.1
20260903170113 92 86 2.6 6.1 0.00 0.00 0.00 59 1019.3
20260903165554 92 0 0.0 3.5 0.00 0.00 0.00 61 1019.2
20260903165053 91 92 0.0 3.5 0.00 0.00 0.00 61 1019.4
20260903164605 91 0 0.9 3.5 0.00 0.00 0.00 62 1019.4
20260903164053 91 0 0.0 2.6 0.00 0.00 0.00 63 1019.3
20260903163552 91 318 0.0 3.5 0.00 0.00 0.00 64 1019.5
20260903163108 91 65 0.0 3.5 0.00 0.00 0.00 63 1019.4
20260903162553 90 0 0.0 3.5 0.00 0.00 0.00 65 1019.5
20260903162055 90 0 0.9 1.7 0.00 0.00 0.00 64 1019.6
20260903161603 90 28 0.9 1.7 0.00 0.00 0.00 63 1019.5
20260903161052 90 338 0.0 5.2 0.00 0.00 0.00 64 1019.6
20260903160552 90 61 1.7 5.2 0.00 0.00 0.00 64 1019.6
20260903155553 89 0 0.9 3.5 0.00 0.00 0.00 65 1019.7
20260903155053 89 113 0.9 4.3 0.00 0.00 0.00 65 1019.7
20260903154601 89 331 1.7 4.3 0.00 0.00 0.00 65 1019.7
20260903154053 89 65 0.9 4.3 0.00 0.00 0.00 66 1019.7
20260903153555 89 42 0.0 4.3 0.00 0.00 0.00 66 1019.7
20260903153102 89 0 0.9 4.3 0.00 0.00 0.00 66 1019.6
20260903152553 89 5 1.7 4.3 0.00 0.00 0.00 66 1019.7
20260903152053 89 0 1.7 4.3 0.00 0.00 0.00 66 1019.7
20260903151602 89 51 0.0 3.5 0.00 0.00 0.00 67 1019.7
20260903151053 89 0 0.0 2.6 0.00 0.00 0.00 67 1019.8
20260903150553 89 0 0.0 2.6 0.00 0.00 0.00 67 1019.8
20260903150114 88 0 0.0 2.6 0.00 0.00 0.00 68 1019.8
20260903145552 88 53 0.9 2.6 0.00 0.00 0.00 69 1019.7
20260903145052 87 10 0.0 3.5 0.00 0.00 0.00 70 1019.7
20260903144602 87 233 0.9 3.5 0.00 0.00 0.00 69 1019.8
20260903144054 87 0 0.9 3.5 0.00 0.00 0.00 70 1019.9
20260903143553 87 20 0.0 4.3 0.00 0.00 0.00 70 1019.8
20260903143103 87 342 0.9 4.3 0.00 0.00 0.00 70 1019.8
20260903142553 87 100 0.9 3.5 0.00 0.00 0.00 70 1019.9
20260903142052 87 0 0.9 2.6 0.00 0.00 0.00 71 1019.7
20260903141601 86 0 0.0 2.6 0.00 0.00 0.00 75 1019.8
20260903141054 86 0 0.9 2.6 0.00 0.00 0.00 75 1019.8
20260903140554 85 44 0.0 2.6 0.00 0.00 0.00 75 1019.9
20260903140101 85 0 0.0 3.5 0.00 0.00 0.00 76 1019.7
20260903135552 84 9 0.9 3.5 0.00 0.00 0.00 78 1019.7
20260903135052 83 17 0.9 3.5 0.00 0.00 0.00 78 1019.8
20260903134606 83 95 1.7 2.6 0.00 0.00 0.00 79 1019.8
20260903134050 82 0 0.0 2.6 0.00 0.00 0.00 80 1019.8
20260903133556 82 0 0.9 3.5 0.00 0.00 0.00 82 1019.9
20260903133106 81 40 0.9 3.5 0.00 0.00 0.00 82 1019.8
20260903132552 80 40 0.9 3.5 0.00 0.00 0.00 83 1019.9
20260903132052 80 343 0.9 3.5 0.00 0.00 0.00 83 1019.7
20260903131606 79 0 0.9 2.6 0.00 0.00 0.00 84 1019.8
20260903131056 79 0 0.9 3.5 0.00 0.00 0.00 86 1019.8
20260903130555 78 5 0.9 3.5 0.00 0.00 0.00 87 1019.8
20260903130117 78 350 0.9 3.5 0.00 0.00 0.00 87 1019.8
20260903125553 77 43 0.0 2.6 0.00 0.00 0.00 88 1019.8
20260903125054 77 32 0.9 2.6 0.00 0.00 0.00 88 1020.0
20260903124610 76 352 0.0 2.6 0.00 0.00 0.00 89 1020.0
20260903124052 76 0 0.9 2.6 0.00 0.00 0.00 89 1019.9
20260903123555 75 352 0.0 2.6 0.00 0.00 0.00 90 1020.0
20260903123102 75 0 0.0 2.6 0.00 0.00 0.00 90 1019.9
20260903122556 75 329 0.9 2.6 0.00 0.00 0.00 90 1020.0
20260903122053 75 0 0.0 2.6 0.00 0.00 0.00 90 1020.0
20260903121602 75 0 0.0 2.6 0.00 0.00 0.00 90 1020.0
20260903121052 74 0 0.9 2.6 0.00 0.00 0.00 91 1019.9
20260903120553 74 0 0.0 0.0 0.00 0.00 0.00 90 1019.8
20260903120106 74 0 0.0 1.7 0.00 0.00 0.00 90 1019.9
20260903115554 74 0 0.0 1.7 0.00 0.00 0.00 91 1019.7
20260903115052 74 360 0.0 0.9 0.00 0.00 0.00 91 1019.7
20260903114608 74 0 0.0 0.0 0.00 0.00 0.00 90 1019.7
20260903114052 74 0 0.0 0.0 0.00 0.00 0.00 90 1019.7
20260903113552 74 0 0.0 0.0 0.00 0.00 0.00 90 1019.6
20260903113102 74 0 0.0 0.0 0.00 0.00 0.00 89 1019.5
20260903112554 74 0 0.0 0.0 0.00 0.00 0.00 89 1019.3
20260903112053 74 0 0.0 0.0 0.00 0.00 0.00 89 1019.4
20260903111626 74 0 0.0 0.0 0.00 0.00 0.00 89 1019.3
20260903111052 74 0 0.0 0.0 0.00 0.00 0.00 90 1019.2
20260903110552 74 0 0.0 0.0 0.00 0.00 0.00 89 1019.2
20260903110113 74 0 0.0 0.0 0.00 0.00 0.00 90 1019.1
20260903105553 74 0 0.0 0.0 0.00 0.00 0.00 89 1019.1
20260903105053 74 0 0.0 0.0 0.00 0.00 0.00 89 1019.0
20260903104633 74 0 0.0 0.0 0.00 0.00 0.00 89 1018.9
20260903104053 74 0 0.0 0.0 0.00 0.00 0.00 89 1019.0
20260903103555 74 0 0.0 0.0 0.00 0.00 0.00 89 1018.9
20260903103105 74 0 0.0 0.0 0.00 0.00 0.00 89 1019.0
20260903102552 74 0 0.0 0.0 0.00 0.00 0.00 89 1018.9
20260903102052 74 0 0.0 0.0 0.00 0.00 0.00 89 1018.9
20260903101606 74 0 0.0 0.0 0.00 0.00 0.00 89 1018.8
20260903101053 74 0 0.0 0.0 0.00 0.00 0.00 88 1018.8
20260903100553 75 0 0.0 0.0 0.00 0.00 0.00 88 1018.8
20260903095552 75 0 0.0 0.0 0.00 0.00 0.00 88 1018.9
20260903095052 75 0 0.0 0.0 0.00 0.00 0.00 88 1018.8
20260903094609 75 0 0.0 0.0 0.00 0.00 0.00 88 1018.8
20260903094055 75 0 0.0 0.0 0.00 0.00 0.00 88 1018.8
20260903093556 75 0 0.0 0.0 0.00 0.00 0.00 87 1018.7
20260903093105 75 0 0.0 0.0 0.00 0.00 0.00 87 1018.7
20260903092552 75 0 0.0 0.0 0.00 0.00 0.00 87 1018.9
20260903092051 75 0 0.0 0.0 0.00 0.00 0.00 87 1018.8
20260903091612 75 0 0.0 0.0 0.00 0.00 0.00 87 1018.8
20260903091055 75 0 0.0 0.0 0.00 0.00 0.00 87 1018.7
20260903090553 75 0 0.0 0.0 0.00 0.00 0.00 87 1018.7
20260903090104 75 0 0.0 0.0 0.00 0.00 0.00 87 1018.7
20260903085552 75 0 0.0 0.0 0.00 0.00 0.00 87 1018.7
20260903085052 75 0 0.0 0.0 0.00 0.00 0.00 87 1018.7
20260903084600 75 0 0.0 0.0 0.00 0.00 0.00 86 1018.7
20260903084052 76 0 0.0 0.0 0.00 0.00 0.00 86 1018.6
20260903083553 76 0 0.0 0.0 0.00 0.00 0.00 86 1018.7
20260903083100 76 0 0.0 0.0 0.00 0.00 0.00 86 1018.6
20260903082552 76 0 0.0 0.0 0.00 0.00 0.00 86 1018.7
20260903082052 76 0 0.0 0.0 0.00 0.00 0.00 86 1018.6
20260903081603 76 0 0.0 0.0 0.00 0.00 0.00 86 1018.6
20260903081055 76 0 0.0 0.0 0.00 0.00 0.00 86 1018.6
20260903080555 76 0 0.0 0.0 0.00 0.00 0.00 85 1018.7
20260903075556 76 0 0.0 0.0 0.00 0.00 0.00 86 1018.6
20260903075052 76 0 0.0 0.0 0.00 0.00 0.00 86 1018.8
20260903074604 76 0 0.0 0.0 0.00 0.00 0.00 85 1018.8
20260903074053 76 0 0.0 0.0 0.00 0.00 0.00 85 1018.6
20260903073553 76 0 0.0 0.0 0.00 0.00 0.00 85 1018.7
20260903073111 77 0 0.0 0.0 0.00 0.00 0.00 85 1018.6
20260903072556 77 0 0.0 0.0 0.00 0.00 0.00 84 1018.6
20260903072053 77 0 0.0 0.0 0.00 0.00 0.00 84 1018.6
20260903071605 77 0 0.0 0.0 0.00 0.00 0.00 84 1018.5
20260903071052 77 0 0.0 0.0 0.00 0.00 0.00 84 1018.6
20260903070554 77 0 0.0 0.0 0.00 0.00 0.00 84 1018.5
20260903070103 77 0 0.0 0.0 0.00 0.00 0.00 84 1018.4
20260903065552 77 0 0.0 0.0 0.00 0.00 0.00 84 1018.4
20260903065052 77 0 0.0 0.0 0.00 0.00 0.00 83 1018.4
20260903064601 77 0 0.0 0.0 0.00 0.00 0.00 83 1018.3
20260903064052 77 0 0.0 0.0 0.00 0.00 0.00 83 1018.3
20260903063552 78 0 0.0 0.0 0.00 0.00 0.00 83 1018.5
20260903063102 78 0 0.0 0.0 0.00 0.00 0.00 83 1018.6
20260903062553 78 0 0.0 0.0 0.00 0.00 0.00 83 1018.6
20260903062053 78 0 0.0 0.0 0.00 0.00 0.00 82 1018.7
20260903061612 78 0 0.0 0.0 0.00 0.00 0.00 82 1018.7
20260903061050 78 0 0.0 0.0 0.00 0.00 0.00 82 1018.9
20260903060553 78 0 0.0 0.0 0.00 0.00 0.00 82 1018.6
20260903060108 78 0 0.0 0.0 0.00 0.00 0.00 82 1018.9
20260903055553 78 0 0.0 0.0 0.00 0.00 0.00 82 1018.9
20260903055053 78 0 0.0 0.0 0.00 0.00 0.00 82 1019.0
20260903054601 79 0 0.0 0.0 0.00 0.00 0.00 82 1019.0
20260903054052 79 0 0.0 0.0 0.00 0.00 0.00 81 1018.8
20260903053551 79 0 0.0 0.0 0.00 0.00 0.00 81 1018.7
20260903053112 79 0 0.0 0.0 0.00 0.00 0.00 81 1018.7
20260903052550 79 0 0.0 0.0 0.00 0.00 0.00 80 1018.7
20260903052052 79 0 0.0 0.0 0.00 0.00 0.00 81 1018.8
20260903051602 79 0 0.0 0.0 0.00 0.00 0.00 81 1018.7